Regional Weather Roundup
Issued by NWS

Home | Current Version | Previous Version | Text Only | Print | Product List | Glossary On
Versions: 1 2 3 4 5 6 7 8 9 10 11 12 13 14 15 16 17 18 19 20 21 22 23 24 25 26 27 28 29 30 31 32 33 34 35 36 37 38 39 40 41 42 43 44 45 46 47 48 49 50
000
ASUS45 KSLC 290010
RWRUT

UTAH REGIONAL WEATHER ROUNDUP
NATIONAL WEATHER SERVICE SALT LAKE CITY UT
600 PM MDT THU MAY 28 2015

UTZ001>011-023>025-290100-

NORTHERN UTAH

CITY           SKY/WX    TMP DP  RH WIND       PRES   REMARKS
BRIGHAM CITY   PTSUNNY   67  41  38 SE5       30.10F
HILL AFB       NOT AVBL
LOGAN          MOSUNNY   59  47  64 SW5       30.13S
OGDEN          MOSUNNY   65  43  44 NE6       30.10F
PROVO AIRPORT  MOSUNNY   70  45  40 NW12G17   30.09S
SALT LAKE CITY MOSUNNY   71  42  35 NW10      30.09S
VERNAL         PTSUNNY   56  42  59 NE21G26   30.13S
WENDOVER       PTSUNNY   73  46  38 SE3       30.08S
HEBER CITY     PTSUNNY   68  30  24 NW10G16   30.13S
WEST JORDAN    SUNNY     70  43  37 NW10G17   30.11F

$$

UTZ012>022-026-027-290100-

SOUTHERN/CENTRAL UTAH

CITY           SKY/WX    TMP DP  RH WIND       PRES   REMARKS
BLANDING       PTSUNNY   66  40  38 N20G25    30.17R
BRYCE CANYON   MOSUNNY   65  34  31 VRB7      30.21F
CEDAR CITY     PTSUNNY   74  38  27 S13G18    30.08F
DELTA          CLOUDY    71  40  32 CALM      30.10S
HANKSVILLE     MOSUNNY   73  41  31 E16       30.03R
MILFORD        PTSUNNY   67  48  50 NE7       30.10F
MOAB/CYNLANDS  MOSUNNY   71  39  31 SE22      30.04S
PRICE          MOSUNNY   69  30  23 N17G26    30.11R
ST GEORGE      MOCLDY    91  34  13 W13G21    29.91F
KANAB          MOSUNNY   81  32  17 SW9G21    30.06F

$$

REGIONAL REPORTS     COLORADO/ARIZONA

CITY           SKY/WX    TMP DP  RH WIND       PRES   REMARKS
CRAIG, CO      CLOUDY    53  44  71 S10       30.18F
GRAND JUNCTION CLOUDY    62  40  44 SW7       30.11F
RIFLE          CLOUDY    61  41  47 VRB6      30.14F
MONTROSE       CLOUDY    58  44  60 N15G31    30.18R
CORTEZ         MOSUNNY   70  40  33 N8        30.10R
PAGE, AZ       MOSUNNY   84  36  18 N8        29.98F
GRAND CANYON   SUNNY     75  24  15 W14G20    30.15F
KINGMAN        SUNNY     89  23   9 SW12G24   29.96F
FLAGSTAFF      SUNNY     72  17  12 W10       30.18F

$$

REGIONAL REPORTS    NEVADA/IDAHO/WYOMING

CITY           SKY/WX    TMP DP  RH WIND       PRES   REMARKS
LAS VEGAS, NV  MOSUNNY   96  28   9 SE10      29.80F HX  90
ELY            CLOUDY    69  35  28 NE10      30.13F
ELKO           MOSUNNY   74  36  25 MISG      30.09S
POCATELLO, ID  MOSUNNY   67  38  34 SW7       30.12S
BURLEY         SUNNY     69  41  36 VRB5      30.08F
EVANSTON, WY   PTSUNNY   51  40  65 W10       30.22F
ROCK SPRINGS   CLOUDY    48  40  73 SW20G28   30.19R
KEMMERER       CLOUDY    50  36  57 W14       30.21F

$$



USA.gov is the U.S. government's official web portal to all federal, state and local government web resources and services.